Weather History for KEWB - August, 2014

Change the Weather History Date:

Tuesday, August 12, 2014

  Actual Average Record
Temperature  
Mean Temperature 68 °F -  
Max Temperature 80 °F 79 °F 93 °F (1988)
Min Temperature 57 °F 65 °F 48 °F (2006)
Cooling Degree Days 3    
Growing Degree Days 18 (Base 50)    
Moisture  
Dew Point 61 °F    
Average Humidity 84    
Maximum Humidity 100    
Minimum Humidity 56    
Precipitation  
Precipitation 0.00 in - - ()
Sea Level Pressure  
Sea Level Pressure 30.10 in    
Wind  
Wind Speed 3 mph (SE)    
Max Wind Speed 18 mph    
Max Gust Speed 22 mph    
Visibility 8 miles    
Events      
Averages and records for this station are not official NWS values.
T = Trace of Precipitation, MM = Missing Value Source: NWS Daily Summary

Daily Weather History Graph

Daily Weather History Graph

Search for Another Location

Airport or City:

Trip Planner

Search our weather history database for the weather conditions in past years. The results will help you decide how hot, cold, wet, or windy it might be!

Date:

Astronomy

Aug. 12, 2014 Rise Set
Actual Time 5:49 AM EDT 7:47 PM EDT
Civil Twilight 5:18 AM EDT 8:17 PM EDT
Nautical Twilight 4:42 AM EDT 8:54 PM EDT
Astronomical Twilight 4:01 AM EDT 9:34 PM EDT
Moon 8:50 PM EDT (8/12) 8:05 AM EDT (8/12)
Length of Visible Light 14h 58m
Length of Day
13h 58m
Waning Gibbous, 95% of the Moon is Illuminated
Aug 12
Waning Gibbous
Aug 17
Last Quarter
Aug 25
New
Sep 2
First Quarter
Sep 8
Full

Hourly Weather History & Observations

Time (EDT) Temp. Dew Point Humidity Pressure Visibility Wind Dir Wind Speed Gust Speed Precip Events Conditions
12:28 AM 61.0 °F 60.1 °F 97% 30.13 in 1.8 mi Calm Calm - N/A   Clear
12:37 AM 61.0 °F 60.1 °F 97% 30.13 in 3.0 mi Calm Calm - N/A   Clear
12:53 AM 61.0 °F 60.1 °F 97% 30.13 in 10.0 mi Calm Calm - N/A   Clear
1:53 AM 59.0 °F 57.9 °F 96% 30.13 in 10.0 mi Calm Calm - N/A   Clear
2:11 AM 59.0 °F 57.9 °F 96% 30.13 in 1.8 mi Calm Calm - N/A   Clear
2:20 AM 59.0 °F 57.9 °F 96% 30.13 in 0.8 mi Calm Calm - N/A   Clear
2:27 AM 59.0 °F 57.9 °F 96% 30.13 in 2.5 mi Calm Calm - N/A   Clear
2:34 AM 59.0 °F 57.9 °F 96% 30.13 in 10.0 mi Calm Calm - N/A   Clear
2:53 AM 59.0 °F 57.9 °F 96% 30.12 in 10.0 mi Calm Calm - N/A   Clear
3:53 AM 59.0 °F 57.9 °F 96% 30.12 in 10.0 mi Calm Calm - N/A   Clear
4:24 AM 57.0 °F 57.0 °F 100% 30.11 in 2.5 mi Calm Calm - N/A   Partly Cloudy
4:30 AM 57.0 °F 55.9 °F 96% 30.11 in 1.0 mi Calm Calm - N/A   Mist
4:39 AM 57.0 °F 55.9 °F 96% 30.11 in 4.0 mi Calm Calm - N/A   Mostly Cloudy
4:53 AM 57.2 °F 57.2 °F 100% 30.11 in 9.0 mi Calm Calm - N/A   Mostly Cloudy
5:08 AM 57.9 °F 57.0 °F 97% 30.11 in 2.0 mi Calm Calm - N/A   Scattered Clouds
5:17 AM 57.9 °F 57.0 °F 97% 30.11 in 7.0 mi Calm Calm - N/A   Clear
5:53 AM 57.9 °F 57.0 °F 97% 30.12 in 10.0 mi Calm Calm - N/A   Clear
6:53 AM 60.1 °F 59.0 °F 96% 30.12 in 10.0 mi Calm Calm - N/A   Clear
7:53 AM 68.0 °F 64.4 °F 88% 30.12 in 10.0 mi Calm Calm - N/A   Clear
8:53 AM 73.9 °F 66.0 °F 76% 30.13 in 10.0 mi SSE 10.4 mph - N/A   Clear
9:53 AM 73.0 °F 64.9 °F 76% 30.12 in 10.0 mi SE 9.2 mph - N/A   Clear
10:53 AM 75.9 °F 64.9 °F 69% 30.12 in 10.0 mi ESE 11.5 mph - N/A   Mostly Cloudy
11:25 AM 75.0 °F 64.0 °F 69% 30.12 in 10.0 mi SE 15.0 mph - N/A   Scattered Clouds
11:53 AM 75.9 °F 63.0 °F 64% 30.12 in 10.0 mi SSE 12.7 mph - N/A   Scattered Clouds
1:53 PM 78.1 °F 62.1 °F 58% 30.10 in 9.0 mi SSE 18.4 mph - N/A   Mostly Cloudy
2:53 PM 79.0 °F 62.1 °F 56% 30.09 in 10.0 mi SE 15.0 mph 21.9 mph N/A   Mostly Cloudy
3:53 PM 78.1 °F 63.0 °F 60% 30.08 in 10.0 mi SSE 15.0 mph - N/A   Scattered Clouds
4:53 PM 77.0 °F 63.0 °F 62% 30.07 in 10.0 mi SSE 13.8 mph - N/A   Partly Cloudy
5:53 PM 75.9 °F 63.0 °F 64% 30.07 in 10.0 mi SSE 10.4 mph 20.7 mph N/A   Partly Cloudy
6:53 PM 73.9 °F 64.0 °F 71% 30.06 in 10.0 mi SE 13.8 mph - N/A   Clear
7:53 PM 72.0 °F 64.0 °F 76% 30.04 in 10.0 mi SE 11.5 mph - N/A   Clear
8:53 PM 72.0 °F 64.9 °F 78% 30.04 in 10.0 mi ESE 6.9 mph - N/A   Mostly Cloudy
9:53 PM 72.0 °F 64.9 °F 78% 30.04 in 10.0 mi SE 12.7 mph 19.6 mph N/A   Mostly Cloudy
10:53 PM 72.0 °F 64.0 °F 76% 30.03 in 10.0 mi SE 13.8 mph - N/A   Mostly Cloudy
11:53 PM 73.0 °F 64.0 °F 73% 30.02 in 10.0 mi SE 13.8 mph - N/A   Mostly Cloudy